Location: *
(40.7873°S, 98.7174°E)
Time: 22:31:52
(UTC+00:00)

Hubble Space Telescope - Pass Details

Date: 16 August 2022
Orbit: 532 x 535 km, 28.5° (Epoch: 23 September)

Event Time Altitude Azimuth Distance (km) Brightness Sun altitude
Exits shadow 21:52:06 13° 22° (NNE) 1,596 3.3 -27.1°
Drops below altitude 10° 21:53:11 10° 37° (NE) 1,784 3.8 -26.9°
Sets 21:56:18 0° 61° (ENE) 2,674 5.2 -26.3°
